Regional Weather Roundup
Issued by NWS Jackson, KY

Home | Current Version | Previous Version | Text Only | Print | Product List | Glossary On
Versions: 1 2 3 4 5 6 7 8 9 10 11 12 13 14 15 16 17 18 19 20 21 22 23 24 25 26 27 28 29 30 31 32 33 34 35 36 37 38 39 40 41 42 43 44 45 46 47 48 49 50
000
ASUS43 KJKL 201719
RWRJKL

EAST KENTUCKY HOURLY WEATHER ROUNDUP
NATIONAL WEATHER SERVICE JACKSON KY
1200 PM EST SAT DEC 20 2014

NOTE: "FAIR" INDICATES FEW OR NO CLOUDS BELOW 12,000 FEET WITH
NO SIGNIFICANT WEATHER AND/OR OBSTRUCTIONS TO VISIBILITY.

* THESE REPORTS ARE NOT UNDER NWS QUALITY CONTROL AND MAY NOT
  REPORT WEATHER SUCH AS PRECIPITATION AND FOG.

KYZ079-080-083-085-087-088-110-112-115-119-120-201800
...EASTERN KENTUCKY...

CITY           SKY/WX    TMP DP  RH WIND       PRES   REMARKS
JACKSON        CLOUDY    33  24  69 CALM      30.23F
LONDON         CLOUDY    36  26  67 W5        30.24S WCI  32
SOMERSET*      MOSUNNY   34  27  75 CALM      30.27F
MONTICELLO*    CLOUDY    38  28  67 CALM      30.29F
MIDDLESBORO*   CLOUDY    39  32  76 CALM      30.23F
HARLAN APT*    CLOUDY    39  30  70 CALM      30.20F
HAZARD APT*    CLOUDY    34  27  75 CALM      30.23F
BLACK MTN*       N/A     32  30  93 SW3         N/A
PIKEVILLE APT* PTSUNNY   32  27  80 CALM      30.22F
BIG SANDY*     CLOUDY    32  26  78 CALM      30.23F
MOREHEAD APT*  CLOUDY    32  27  80 CALM      30.28F
ASHLAND*       CLOUDY    34  21  60 CALM      30.25F
$$

KYZ035-036-041-042-044-050-067-078-099-201800
...CENTRAL KENTUCKY...

CITY           SKY/WX    TMP DP  RH WIND       PRES   REMARKS
MT STERLING*   CLOUDY    32  28  86 NE3       30.27F
FLEMING/MASON* CLOUDY    30  25  80 CALM      30.28F
DANVILLE*      CLOUDY    32  27  80 CALM      30.27F
RICHMOND*      CLOUDY    32  25  74 CALM      30.25F
LEXINGTON      CLOUDY    33  25  72 E3        30.26F
FRANKFORT      CLOUDY    33  25  72 VRB3      30.27F
$$

KYZ091>093-OHZ055-061-077-WVZ005-015-034-035-042-201800
...SOUTHERN OHIO/WEST VIRGINIA...

CITY           SKY/WX    TMP DP  RH WIND       PRES   REMARKS
COVINGTON      CLOUDY    31  24  75 CALM      30.28F
COLUMBUS       CLOUDY    30  23  75 CALM      30.28S
DAYTON         CLOUDY    31  22  69 CALM      30.28F
WILMINGTON     CLOUDY    29  22  75 CALM      30.27S
HUNTINGTON     PTSUNNY   33  24  69 E3        30.25F
CHARLESTON     CLOUDY    33  23  66 CALM      30.24F
PINEVILLE*     CLOUDY    36  32  87 MISG      30.24F
BECKLEY        CLOUDY    33  26  75 S3        30.16S
BLUEFIELD      CLOUDY    34  27  75 CALM      30.15F
$$

VAZ002-007-008-TNZ017-027-036-066-071-201800
...SOUTHWEST VIRGINIA/EAST TENNESSEE...

CITY           SKY/WX    TMP DP  RH WIND       PRES   REMARKS
WISE*          CLOUDY    34  30  86 CALM      30.17F
JONESVILLE*    MOSUNNY   39  32  75 CALM      30.23F
ABINGDON*      CLOUDY    40  35  84 E5        30.18S
BRISTOL        CLOUDY    40  36  86 CALM      30.19F
KNOXVILLE      CLOUDY    41  31  67 N3        30.23S
OAK RIDGE      CLOUDY    44  32  62 VRB3      30.24F
CROSSVILLE     PTSUNNY   42  31  64 CALM      30.21S
NASHVILLE      PTSUNNY   42  27  55 VRB5      30.28F
$$

...KEY TO REMARKS...
VSB - VISIBILITY IN MILES
WCI - WIND CHILL INDEX
HX  - HEAT INDEX

$$



USA.gov is the U.S. government's official web portal to all federal, state and local government web resources and services.